Location: Chihuahua
(28.6330°N, 106.0830°W)
Time: 18:37:16
(UTC-07:00)

Daily predictions for brighter satellites

Satellite Brightness Start Highest point End
(mag) Time Altitude Azimuth Time Altitude Azimuth Time Altitude Azimuth
Cosmos 2228 3.1 19:24:31 10° N 19:28:55 88° W 19:33:19 10° S
Intercosmos 25 3.1 19:27:18 10° S 19:30:22 52° E 19:33:49 10° NNE
CZ-2D R/B 3.3 19:26:59 10° SSE 19:30:52 80° ENE 19:34:44 10° N
Cosmos 1470 3.9 19:29:55 10° NNE 19:33:15 26° E 19:36:35 10° SE
Aurora 2 Rocket 4.0 19:29:49 10° SW 19:34:54 39° SSE 19:42:02 10° E
SL-16 R/B 3.9 19:30:44 10° NW 19:35:44 33° WSW 19:40:45 10° SSW
IUS-9 SRM-1 4.5 19:32:21 10° WSW 19:35:57 34° S 19:48:36 10° SE
USA 215 4.3 19:41:09 10° ESE 19:46:56 34° NE 19:52:43 10° NNW
YAOGAN 6 2.5 19:47:10 10° SSE 19:50:42 85° E 19:54:14 10° N
Meteor 2-5 Rocket 4.4 19:45:22 10° SSE 19:50:45 37° E 19:56:08 10° NNE
Cosmos 1733 3.1 19:50:31 10° N 19:54:17 83° E 19:58:03 10° S
Cosmos 158 Rocket 4.2 19:51:14 10° SSW 19:56:34 80° WNW 20:01:51 10° NNE
Cosmos 1371 Rocket 4.4 19:52:20 10° NNW 19:57:27 65° WSW 20:02:33 10° S
Cosmos 2263 Rocket 3.5 19:52:39 10° SW 19:58:04 45° WNW 20:03:30 10° N
Cosmos 1655 Rocket 4.0 19:53:14 10° N 19:59:30 85° E 20:05:42 10° S
Cosmos 1939 Rocket 2.9 19:55:49 10° SSE 19:59:55 90° NE 20:04:00 10° N
Spot 2 Rocket 4.0 19:56:56 13° SE 20:01:08 41° ENE 20:05:51 10° N
GENESIS II 4.1 19:59:12 10° SSW 20:03:02 79° ESE 20:06:56 10° NNE
Cosmos 468 4.5 19:58:59 10° S 20:04:18 82° ESE 20:09:38 10° NNE
Cosmos 1452 Rocket 4.2 20:01:26 10° N 20:06:20 38° ENE 20:09:44 18° SE
Cosmos 2266 Rocket 4.3 20:04:32 10° N 20:10:43 51° E 20:15:45 15° SSE
Cosmos 2056 Rocket 3.9 20:05:43 10° NNW 20:10:49 62° WSW 20:16:00 10° S
Palapa 6 Rocket 4.0 20:06:20 10° WSW 20:11:13 45° S 20:15:33 18° ESE
Cosmos 1603 4.3 20:05:53 10° NNW 20:11:30 58° WSW 20:17:06 10° S
Cosmos 1758 4.4 20:10:08 10° NNW 20:14:01 44° W 20:17:51 10° SSW
Cosmos 1707 3.6 20:11:21 10° SSW 20:15:06 50° W 20:18:52 10° N
In-Cosmos 22 4.5 20:10:18 10° SSE 20:15:26 46° E 20:20:46 10° NNE
H-2A R/B 3.2 20:21:14 20° ESE 20:23:25 27° ENE 20:27:50 10° NNE
Cosmos 1315 Rocket 2.8 20:21:42 15° S 20:24:55 66° E 20:28:57 10° NNE
SJ-11-01 4.5 20:20:50 12° S 20:25:13 74° W 20:29:58 10° NNW
Cosmos 1674 4.3 20:25:41 19° E 20:25:41 19° E 20:28:01 10° NE
Resurs 1-3 4.1 20:25:34 12° S 20:29:34 57° W 20:33:53 10° NNW
Cosmos 1607 3.9 20:23:53 10° NNW 20:30:15 84° ENE 20:34:10 24° SSE
Cosmos 1269 Rocket 3.9 20:26:18 10° S 20:31:34 76° ESE 20:36:52 10° NNE
Cosmos-2242 4.4 20:28:08 10° NNE 20:31:36 22° E 20:31:59 22° E
USA 186 4.3 20:30:08 10° SSW 20:32:40 20° W 20:35:08 10° NW
Cosmos 1953 3.8 20:29:17 10° NNW 20:32:56 35° W 20:36:36 10° SSW
Hubble Space Telescope 1.9 20:33:30 10° W 20:37:05 28° SSW 20:37:50 26° S
Cosmos 494 Rocket 4.2 20:36:41 26° SSE 20:39:12 46° E 20:44:12 10° NNE
ERS-2 2.8 20:40:03 23° SSW 20:42:05 50° W 20:45:39 10° NNW
Cosmos 1812 Rocket 4.5 20:39:56 10° NNW 20:44:06 46° W 20:47:29 15° SSW
Cosmos 1953 Rocket 3.4 20:43:15 24° S 20:45:52 88° W 20:50:14 10° N
Centaur D-1A AC-31 2.4 20:44:57 10° WSW 20:47:33 20° SSW 20:47:33 20° SSW
SPOT 5 4.5 20:47:50 20° ENE 20:48:26 20° ENE 20:52:09 10° NNE
Cosmos 2278 Rocket 3.5 20:50:05 22° E 20:50:05 22° E 20:53:21 10° NE
DMSP B5D2-2 4.4 20:45:34 10° NNE 20:50:31 43° E 20:51:24 39° SE
Cosmos 1758 Rocket 4.1 20:47:25 13° SSW 20:51:19 58° W 20:55:42 10° N
Cosmos 1726 4.5 20:49:15 10° NE 20:50:03 12° NE 20:50:03 12° NE
Cosmos 1238 Rocket 2.3 20:52:45 66° W 20:52:48 66° W 20:55:43 10° N
Resurs 01 Rocket 3.2 20:49:14 11° SSW 20:52:51 31° W 20:56:47 10° NW
Cosmos 1943 4.2 20:47:55 10° NW 20:53:12 42° WSW 20:57:02 18° SSW
Lacrosse 5 4.3 20:51:20 10° W 20:55:26 24° NW 20:59:33 10° N
OAO 3 Rocket 4.5 20:51:08 10° WNW 20:55:47 39° N 20:59:32 14° ENE
Cosmos 1932 4.4 20:50:47 10° NNW 20:56:59 74° ENE 20:59:18 40° SE
ARGOS 3.1 20:55:27 38° SSE 20:57:34 78° ENE 21:03:00 10° N
CZ-3 Stage 3 3.8 20:54:14 10° W 20:57:58 79° N 21:17:42 10° E
Timation 1 Rocket 4.3 20:52:02 10° SSW 20:57:59 86° WNW 21:03:59 10° NNE
SEDSat Delta rocket 3.4 20:53:03 10° SW 20:58:11 50° SSE 20:58:14 50° SSE
ATLAS 2AS CENTAUR R/B 3.5 20:53:36 10° SW 21:01:06 63° WNW 21:09:08 10° NNE
Helios 1B rocket 4.4 20:58:24 10° NE 20:59:36 16° ENE 20:59:36 16° ENE
Cosmos 2251 Rocket 4.1 21:05:49 38° E 21:05:49 38° E 21:10:14 10° NNE
Iridium 4 Rocket 4.5 21:01:16 12° SSW 21:06:29 50° W 21:11:46 10° NNW
ERS-1 Rocket 3.1 21:06:46 49° ESE 21:07:25 53° ENE 21:12:18 10° N
KORONAS-FOTON 4.5 21:08:30 44° NE 21:08:30 44° NE 21:11:27 10° NNE
COSMOS 2406 4.5 21:03:06 10° N 21:07:46 25° ENE 21:08:28 24° ENE
MetOp-A 4.1 21:06:09 44° S 21:07:56 87° WSW 21:13:19 10° NNW
Cosmos 1346 Rocket 3.0 21:04:42 10° N 21:08:19 58° NE 21:08:19 58° NE
Cosmos 1844 Rocket 3.4 21:05:05 10° SW 21:10:36 54° WNW 21:16:09 10° N
Cosmos 1844 3.8 21:05:00 10° SSW 21:10:38 75° WNW 21:16:22 10° NNE
Cosmos 1417 Rocket 4.4 21:11:39 39° S 21:14:13 79° E 21:20:32 10° N
SL-08 RB Rocket 3.6 21:13:46 67° S 21:14:23 88° WSW 21:19:04 10° NNW
Cosmos 921 Rocket 3.5 21:22:16 10° N 21:26:03 53° NE 21:26:03 53° NE
Aurora 2 Rocket 3.9 21:21:53 10° WSW 21:28:38 67° S 21:31:38 43° ESE
USA 215 3.6 21:27:48 41° S 21:29:39 53° SW 21:36:02 10° NW
ATLAS 5 CENTAUR R/B 4.1 21:35:22 12° NE 21:35:22 12° NE 21:35:42 10° NE
Cosmos 1745 Rocket 4.1 21:31:22 10° N 21:37:32 56° E 21:37:41 56° E
NOSS 3-4 (A) 3.2 21:37:55 68° S 21:38:42 79° ESE 21:44:58 10° NNE
NOSS 3-4 (C) 3.2 21:38:08 70° S 21:38:47 78° ESE 21:45:02 10° NNE
Cosmos 1908 4.4 21:35:22 10° N 21:38:00 41° NNW 21:38:00 41° NNW
Cosmos 1461 4.1 21:44:20 42° NNE 21:44:20 42° NNE 21:47:30 10° NNE
Cosmos 724 4.3 21:36:55 10° NNW 21:42:58 69° ENE 21:43:15 68° E
SL-08 R/B 4.3 21:37:39 10° N 21:43:51 84° E 21:44:21 76° SSE
Terra 3.0 21:53:44 35° NNE 21:53:44 35° NNE 21:56:52 10° N
Meteor 2-13 Rocket 4.4 21:48:19 10° N 21:54:05 69° ENE 21:54:05 69° ENE
S3M 4.4 21:54:48 44° SW 21:56:31 58° W 22:02:48 10° N
CZ-2C R/B 3.8 21:55:26 10° NNE 21:58:37 33° NE 21:58:37 33° NE
SPOT 1/Viking Rocket 3.9 22:02:58 60° WNW 22:02:58 60° WNW 22:07:24 10° NNW
H-2A R/B 3.6 22:01:51 26° WSW 22:02:39 27° W 22:07:08 10° NW
ATLAS 3B CENTAUR R/B 3.2 21:55:34 10° WSW 22:12:41 68° SSE 22:13:14 67° SSE
SPOT 5 4.4 22:27:04 31° WNW 22:27:04 31° WNW 22:30:47 10° NNW
USA 238 DEB 3.8 22:24:52 10° NNW 22:31:39 71° W 22:31:39 71° W
USA 238 3.8 22:24:58 10° NNW 22:31:45 72° W 22:31:45 72° W
ATLAS 3B R/B 2.7 22:25:58 10° NNW 22:31:41 69° NNW 22:31:41 69° NNW
Cosmos 2278 Rocket 3.5 22:31:51 32° W 22:32:44 34° WNW 22:37:51 10° N
Cosmos 2315 Rocket 4.3 22:36:49 63° NW 22:36:49 63° NW 22:42:20 10° N
NOSS 3-2 (A) 4.0 22:37:16 10° NNW 22:45:04 85° NNE 22:45:04 85° NNE
CZ-2C R/B 4.3 22:50:50 43° NW 22:50:50 43° NW 22:55:03 10° NNW
NOSS 3-2 (C) 4.1 23:01:52 10° NNW 23:09:03 77° NNW 23:09:03 77° NNW
ATLAS 5 CENTAUR R/B 4.3 23:16:49 16° NW 23:16:49 16° NW 23:19:08 10° NNW
Cosmos 2082 Rocket 3.7 23:22:08 10° NNW 23:25:13 34° NNW 23:25:13 34° NNW
Cosmos 1833 Rocket 4.3 23:27:00 10° NNW 23:29:47 30° NNW 23:29:47 30° NNW
ADEOS Rocket 3.9 23:33:38 10° N 23:37:49 47° N 23:37:49 47° N
CENTAUR R/B 3.3 23:33:52 10° NNW 23:41:24 70° NNE 23:41:24 70° NNE
Cosmos 1943 Rocket 4.3 23:49:40 19° NE 23:49:40 19° NE 23:51:17 10° NE
USA 234 4.0 23:46:38 10° NE 23:51:10 47° NNE 23:51:10 47° NNE
